OCN3TY EDDF-ENEV

Flight info

Callsign OCN3TY
Flight time 2h 56m
Altitude 35000
Route MARUN6E MARUN Y150 TOLGI DCT ALASA DCT REGMA DCT OLGUV DCT DETMU DCT PENNO
Aircraft A320/M-SDE2E3FGIJ1LORWXYZ/HB1

Departure

Time 2026-04-17 08:16
Airport Frankfurt Main Airport (EDDF)

Arrival

Time 2026-04-17 11:12
Airport Harstad/Narvik Airport (ENEV)
Time Latitude Longitude Altitude Speed Heading
2026-04-17 07:19 50.04453 8.56431 362 ft 0 kts 154°
2026-04-17 07:55 50.04454 8.56430 356 ft 1 kts 154°
2026-04-17 07:55 50.04468 8.56419 357 ft 3 kts 153°
2026-04-17 07:56 50.04486 8.56405 362 ft 3 kts 159°
2026-04-17 07:56 50.04504 8.56397 361 ft 3 kts 189°
2026-04-17 07:56 50.04519 8.56408 356 ft 3 kts 217°
2026-04-17 07:56 50.04536 8.56426 359 ft 3 kts 211°
2026-04-17 07:57 50.04554 8.56441 359 ft 3 kts 206°
2026-04-17 07:57 50.04569 8.56452 363 ft 1 kts 204°
2026-04-17 07:57 50.04570 8.56453 363 ft 0 kts 204°
2026-04-17 08:00 50.04564 8.56449 356 ft 3 kts 204°
2026-04-17 08:00 50.04542 8.56432 359 ft 3 kts 210°
2026-04-17 08:01 50.04519 8.56394 359 ft 6 kts 241°
2026-04-17 08:01 50.04500 8.56318 357 ft 7 kts 249°
2026-04-17 08:01 50.04485 8.56253 364 ft 6 kts 250°
2026-04-17 08:01 50.04473 8.56203 358 ft 5 kts 250°
2026-04-17 08:02 50.04458 8.56138 358 ft 8 kts 250°
2026-04-17 08:02 50.04430 8.56049 359 ft 9 kts 225°
2026-04-17 08:02 50.04374 8.56038 362 ft 9 kts 163°
2026-04-17 08:02 50.04316 8.56072 356 ft 9 kts 155°
2026-04-17 08:03 50.04291 8.56151 356 ft 8 kts 86°
2026-04-17 08:03 50.04268 8.56221 359 ft 8 kts 145°
2026-04-17 08:03 50.04218 8.56253 361 ft 7 kts 159°
2026-04-17 08:03 50.04170 8.56280 356 ft 8 kts 159°
2026-04-17 08:04 50.04148 8.56363 358 ft 11 kts 77°
2026-04-17 08:04 50.04180 8.56499 357 ft 15 kts 69°
2026-04-17 08:04 50.04216 8.56653 359 ft 15 kts 70°
2026-04-17 08:04 50.04251 8.56798 359 ft 14 kts 70°
2026-04-17 08:05 50.04285 8.56939 363 ft 15 kts 70°
2026-04-17 08:05 50.04320 8.57088 369 ft 14 kts 70°
2026-04-17 08:05 50.04355 8.57237 361 ft 15 kts 70°
2026-04-17 08:05 50.04393 8.57394 367 ft 16 kts 70°
2026-04-17 08:06 50.04434 8.57560 364 ft 16 kts 69°
2026-04-17 08:06 50.04470 8.57719 367 ft 16 kts 71°
2026-04-17 08:06 50.04509 8.57884 366 ft 16 kts 69°
2026-04-17 08:06 50.04550 8.58057 364 ft 18 kts 70°
2026-04-17 08:07 50.04590 8.58221 367 ft 12 kts 69°
2026-04-17 08:07 50.04617 8.58330 370 ft 10 kts 69°
2026-04-17 08:07 50.04638 8.58416 370 ft 8 kts 69°
2026-04-17 08:07 50.04653 8.58488 370 ft 8 kts 80°
2026-04-17 08:08 50.04638 8.58556 370 ft 7 kts 132°
2026-04-17 08:08 50.04603 8.58583 369 ft 3 kts 160°
2026-04-17 08:08 50.04593 8.58589 369 ft 0 kts 160°
2026-04-17 08:12 50.04592 8.58590 369 ft 0 kts 160°
2026-04-17 08:12 50.04585 8.58593 372 ft 0 kts 160°
2026-04-17 08:14 50.04555 8.58610 372 ft 3 kts 160°
2026-04-17 08:14 50.04543 8.58618 371 ft 4 kts 160°
2026-04-17 08:14 50.04499 8.58600 370 ft 7 kts 218°
2026-04-17 08:14 50.04475 8.58540 370 ft 8 kts 249°
2026-04-17 08:15 50.04388 8.58172 369 ft 72 kts 249°
2026-04-17 08:15 50.04138 8.57128 368 ft 131 kts 249°
2026-04-17 08:15 50.03759 8.55555 359 ft 177 kts 248°
2026-04-17 08:15 50.03316 8.53771 944 ft 176 kts 248°
2026-04-17 08:16 50.02873 8.51976 1630 ft 179 kts 249°
2026-04-17 08:16 50.02304 8.50189 1998 ft 195 kts 227°
2026-04-17 08:16 50.01147 8.49066 2419 ft 202 kts 193°
2026-04-17 08:16 49.99764 8.48625 2988 ft 203 kts 192°
2026-04-17 08:17 49.98387 8.48096 3573 ft 204 kts 194°
2026-04-17 08:17 49.97005 8.47532 4140 ft 206 kts 194°
2026-04-17 08:17 49.95612 8.46951 4682 ft 210 kts 196°
2026-04-17 08:17 49.94153 8.46279 4980 ft 228 kts 197°
2026-04-17 08:18 49.92573 8.45526 5435 ft 242 kts 198°
2026-04-17 08:18 49.91109 8.44258 6160 ft 245 kts 225°
2026-04-17 08:18 49.90184 8.41986 6685 ft 261 kts 252°
2026-04-17 08:18 49.90065 8.39135 7239 ft 273 kts 281°
2026-04-17 08:19 49.90885 8.36475 7945 ft 279 kts 311°
2026-04-17 08:19 49.92473 8.34761 8687 ft 283 kts 341°
2026-04-17 08:19 49.94430 8.34526 9447 ft 287 kts 12°
2026-04-17 08:19 49.96287 8.35689 10216 ft 291 kts 25°
2026-04-17 08:20 49.98132 8.37129 10604 ft 307 kts 26°
2026-04-17 08:20 50.00105 8.38695 10781 ft 329 kts 26°
2026-04-17 08:20 50.02175 8.40343 11271 ft 338 kts 26°
2026-04-17 08:20 50.04281 8.42016 11915 ft 342 kts 25°
2026-04-17 08:21 50.06409 8.43699 12595 ft 345 kts 25°
2026-04-17 08:21 50.08557 8.45394 13260 ft 348 kts 25°
2026-04-17 08:21 50.10725 8.47102 13921 ft 351 kts 25°
2026-04-17 08:21 50.12911 8.48827 14501 ft 354 kts 25°
2026-04-17 08:22 50.15114 8.50564 15074 ft 356 kts 24°
2026-04-17 08:22 50.17338 8.52314 15640 ft 359 kts 24°
2026-04-17 08:22 50.19578 8.54081 16219 ft 362 kts 24°
2026-04-17 08:22 50.21833 8.55863 16770 ft 365 kts 24°
2026-04-17 08:23 50.24106 8.57667 17326 ft 368 kts 24°
2026-04-17 08:23 50.26395 8.59491 17868 ft 371 kts 24°
2026-04-17 08:23 50.28703 8.61331 18414 ft 374 kts 24°
2026-04-17 08:23 50.31028 8.63181 18874 ft 377 kts 24°
2026-04-17 08:24 50.33373 8.65045 19367 ft 379 kts 24°
2026-04-17 08:24 50.35729 8.66921 19835 ft 382 kts 24°
2026-04-17 08:24 50.38103 8.68816 20300 ft 384 kts 24°
2026-04-17 08:24 50.40489 8.70724 20757 ft 386 kts 24°
2026-04-17 08:25 50.42888 8.72644 21194 ft 389 kts 24°
2026-04-17 08:25 50.45306 8.74584 21649 ft 391 kts 24°
2026-04-17 08:25 50.47731 8.76534 22089 ft 393 kts 24°
2026-04-17 08:25 50.50177 8.78499 22529 ft 396 kts 24°
2026-04-17 08:26 50.52636 8.80467 22951 ft 398 kts 24°
2026-04-17 08:26 50.55108 8.82449 23380 ft 400 kts 24°
2026-04-17 08:26 50.57596 8.84448 23798 ft 402 kts 24°
2026-04-17 08:26 50.60094 8.86459 24147 ft 404 kts 24°
2026-04-17 08:27 50.62603 8.88484 24495 ft 406 kts 24°
2026-04-17 08:27 50.65123 8.90521 24836 ft 408 kts 24°
2026-04-17 08:27 50.67655 8.92568 25178 ft 410 kts 24°
2026-04-17 08:27 50.70201 8.94629 25511 ft 412 kts 24°
2026-04-17 08:28 50.72754 8.96699 25839 ft 414 kts 23°
2026-04-17 08:28 50.75320 8.98783 26164 ft 416 kts 24°
2026-04-17 08:28 50.77895 9.00880 26485 ft 417 kts 24°
2026-04-17 08:28 50.80482 9.02990 26812 ft 419 kts 24°
2026-04-17 08:29 50.83080 9.05111 27130 ft 421 kts 23°
2026-04-17 08:29 50.85689 9.07239 27449 ft 423 kts 23°
2026-04-17 08:29 50.88310 9.09377 27747 ft 425 kts 23°
2026-04-17 08:29 50.90941 9.11527 28055 ft 427 kts 23°
2026-04-17 08:30 50.93584 9.13690 28357 ft 428 kts 23°
2026-04-17 08:30 50.96236 9.15867 28661 ft 430 kts 23°
2026-04-17 08:30 50.98898 9.18057 28961 ft 432 kts 23°
2026-04-17 08:30 51.01572 9.20261 29244 ft 434 kts 23°
2026-04-17 08:31 51.04257 9.22474 29517 ft 435 kts 23°
2026-04-17 08:31 51.06948 9.24692 29785 ft 437 kts 23°
2026-04-17 08:31 51.09664 9.26891 30046 ft 437 kts 20°
2026-04-17 08:31 51.12503 9.28570 30290 ft 434 kts 11°
2026-04-17 08:32 51.15435 9.29652 30513 ft 433 kts
2026-04-17 08:32 51.18390 9.30664 30748 ft 434 kts
2026-04-17 08:32 51.21336 9.31675 31099 ft 432 kts
2026-04-17 08:32 51.24269 9.32695 31457 ft 430 kts
2026-04-17 08:33 51.27190 9.33715 31807 ft 429 kts
2026-04-17 08:33 51.30099 9.34730 32124 ft 427 kts
2026-04-17 08:33 51.32997 9.35740 32452 ft 426 kts
2026-04-17 08:33 51.35885 9.36751 32800 ft 424 kts
2026-04-17 08:34 51.37794 9.37419 33025 ft 423 kts
2026-04-17 08:34 51.40663 9.38421 33355 ft 422 kts
2026-04-17 08:34 51.43525 9.39418 33696 ft 420 kts
2026-04-17 08:34 51.46376 9.40409 34046 ft 418 kts
2026-04-17 08:35 51.49211 9.41396 34374 ft 416 kts
2026-04-17 08:35 51.52038 9.42381 34619 ft 416 kts
2026-04-17 08:35 51.54865 9.43367 34829 ft 416 kts
2026-04-17 08:35 51.57694 9.44358 35021 ft 416 kts
2026-04-17 08:36 51.60530 9.45358 35189 ft 417 kts
2026-04-17 08:36 51.66177 9.47364 35249 ft 415 kts
2026-04-17 08:37 51.71799 9.49362 35254 ft 413 kts
2026-04-17 08:37 51.77416 9.51346 35252 ft 413 kts
2026-04-17 08:38 51.83032 9.53255 35253 ft 410 kts
2026-04-17 08:38 51.88688 9.54058 35256 ft 408 kts 360°
2026-04-17 08:39 51.94347 9.54825 35270 ft 408 kts 360°
2026-04-17 08:39 52.00001 9.55594 35267 ft 408 kts 360°
2026-04-17 08:40 52.05653 9.56367 35266 ft 407 kts 360°
2026-04-17 08:40 52.11297 9.57134 35267 ft 407 kts 360°
2026-04-17 08:41 52.16947 9.57900 35289 ft 407 kts 359°
2026-04-17 08:41 52.22597 9.58664 35283 ft 407 kts 359°
2026-04-17 08:42 52.28284 9.59445 35281 ft 407 kts 359°
2026-04-17 08:42 52.33892 9.60214 35283 ft 407 kts 359°
2026-04-17 08:43 52.39544 9.60993 35299 ft 407 kts 359°
2026-04-17 08:43 52.45190 9.61776 35293 ft 407 kts 359°
2026-04-17 08:44 52.50836 9.62549 35287 ft 407 kts 359°
2026-04-17 08:44 52.56480 9.63337 35285 ft 407 kts 359°
2026-04-17 08:45 52.62115 9.64121 35287 ft 406 kts 359°
2026-04-17 08:45 52.67748 9.64898 35276 ft 406 kts 359°
2026-04-17 08:46 52.73381 9.65684 35269 ft 406 kts 359°
2026-04-17 08:46 52.79016 9.66467 35269 ft 406 kts 359°
2026-04-17 08:47 52.84652 9.67258 35269 ft 407 kts 359°
2026-04-17 08:47 52.90297 9.68060 35289 ft 407 kts 359°
2026-04-17 08:48 52.95944 9.68869 35279 ft 407 kts 359°
2026-04-17 08:48 53.01587 9.69669 35275 ft 407 kts 359°
2026-04-17 08:49 53.07233 9.70467 35274 ft 407 kts 359°
2026-04-17 08:49 53.12875 9.71257 35271 ft 407 kts 359°
2026-04-17 08:50 53.18512 9.72062 35272 ft 407 kts 359°
2026-04-17 08:50 53.24150 9.72873 35270 ft 406 kts 359°
2026-04-17 08:51 53.29783 9.73674 35269 ft 406 kts 359°
2026-04-17 08:51 53.35411 9.74483 35280 ft 406 kts 359°
2026-04-17 08:52 53.41052 9.75302 35273 ft 407 kts 359°
2026-04-17 08:52 53.46690 9.76115 35276 ft 407 kts 359°
2026-04-17 08:53 53.52332 9.76935 35277 ft 407 kts 359°
2026-04-17 08:53 53.57976 9.77752 35276 ft 407 kts 359°
2026-04-17 08:54 53.63618 9.78573 35290 ft 407 kts 359°
2026-04-17 08:54 53.69259 9.79401 35283 ft 407 kts 359°
2026-04-17 08:55 53.74902 9.80223 35279 ft 407 kts 359°
2026-04-17 08:55 53.80551 9.81056 35277 ft 407 kts 359°
2026-04-17 08:56 53.86196 9.81887 35289 ft 407 kts 359°
2026-04-17 08:56 53.91846 9.82718 35277 ft 408 kts 359°
2026-04-17 08:57 53.97507 9.83554 35267 ft 408 kts 359°
2026-04-17 08:57 54.03169 9.84399 35275 ft 409 kts 359°
2026-04-17 08:58 54.08831 9.85246 35282 ft 409 kts 359°
2026-04-17 08:58 54.14503 9.86089 35276 ft 409 kts 359°
2026-04-17 08:59 54.20180 9.86928 35269 ft 410 kts 359°
2026-04-17 08:59 54.25858 9.87775 35295 ft 410 kts 359°
2026-04-17 09:00 54.31547 9.88641 35290 ft 410 kts 359°
2026-04-17 09:00 54.37231 9.89506 35310 ft 410 kts 359°
2026-04-17 09:01 54.42921 9.90358 35305 ft 411 kts 359°
2026-04-17 09:01 54.48613 9.91212 35301 ft 411 kts 359°
2026-04-17 09:02 54.54319 9.92089 35300 ft 411 kts 359°
2026-04-17 09:02 54.60022 9.92968 35302 ft 411 kts 359°
2026-04-17 09:03 54.65727 9.93842 35314 ft 412 kts 359°
2026-04-17 09:03 54.71437 9.94715 35308 ft 412 kts 359°
2026-04-17 09:04 54.77149 9.95587 35310 ft 412 kts 359°
2026-04-17 09:04 54.82861 9.96575 35310 ft 414 kts
2026-04-17 09:05 54.88567 9.98166 35334 ft 416 kts
2026-04-17 09:05 54.94272 9.99981 35328 ft 417 kts
2026-04-17 09:06 54.99981 10.01717 35321 ft 416 kts
2026-04-17 09:06 55.05697 10.03359 35320 ft 416 kts
2026-04-17 09:07 55.11417 10.05002 35336 ft 417 kts
2026-04-17 09:07 55.17136 10.06663 35329 ft 417 kts
2026-04-17 09:08 55.22855 10.08343 35321 ft 417 kts
2026-04-17 09:08 55.28572 10.10023 35316 ft 417 kts
2026-04-17 09:09 55.34293 10.11705 35315 ft 417 kts
2026-04-17 09:09 55.40010 10.13404 35325 ft 417 kts
2026-04-17 09:10 55.48597 10.15952 35315 ft 417 kts
2026-04-17 09:10 55.54320 10.17649 35313 ft 417 kts
2026-04-17 09:11 55.60045 10.19354 35308 ft 417 kts
2026-04-17 09:11 55.65768 10.21071 35306 ft 417 kts
2026-04-17 09:12 55.71494 10.22804 35306 ft 417 kts
2026-04-17 09:12 55.77221 10.24541 35306 ft 417 kts
2026-04-17 09:13 55.82946 10.26263 35306 ft 417 kts
2026-04-17 09:13 55.88670 10.27986 35320 ft 417 kts
2026-04-17 09:14 55.94399 10.29737 35311 ft 418 kts
2026-04-17 09:14 56.00132 10.31484 35308 ft 418 kts
2026-04-17 09:15 56.04898 10.32940 35307 ft 418 kts
2026-04-17 09:15 56.11566 10.34987 35307 ft 419 kts
2026-04-17 09:16 56.17305 10.36753 35319 ft 419 kts
2026-04-17 09:16 56.22119 10.38245 35310 ft 419 kts
2026-04-17 09:17 56.27867 10.40026 35302 ft 419 kts
2026-04-17 09:17 56.33618 10.41803 35301 ft 419 kts
2026-04-17 09:18 56.39366 10.43589 35301 ft 419 kts
2026-04-17 09:18 56.45120 10.45386 35315 ft 419 kts
2026-04-17 09:19 56.50873 10.47188 35314 ft 419 kts
2026-04-17 09:19 56.56622 10.48994 35315 ft 419 kts
2026-04-17 09:20 56.62370 10.50801 35312 ft 419 kts
2026-04-17 09:20 56.68081 10.52611 35326 ft 419 kts
2026-04-17 09:21 56.73828 10.54435 35323 ft 419 kts
2026-04-17 09:21 56.79579 10.56265 35293 ft 420 kts
2026-04-17 09:22 56.85338 10.58106 35287 ft 421 kts
2026-04-17 09:22 56.91113 10.59957 35287 ft 422 kts
2026-04-17 09:23 56.96914 10.61823 35301 ft 423 kts
2026-04-17 09:23 57.02709 10.63684 35301 ft 423 kts
2026-04-17 09:24 57.08502 10.65549 35300 ft 423 kts
2026-04-17 09:24 57.14308 10.67430 35299 ft 423 kts
2026-04-17 09:25 57.20149 10.69327 35320 ft 423 kts
2026-04-17 09:25 57.25910 10.71211 35315 ft 423 kts
2026-04-17 09:26 57.31708 10.73117 35315 ft 423 kts
2026-04-17 09:26 57.37507 10.75027 35314 ft 423 kts
2026-04-17 09:27 57.43304 10.76936 35314 ft 423 kts
2026-04-17 09:27 57.49104 10.78843 35328 ft 423 kts
2026-04-17 09:28 57.54907 10.80755 35325 ft 423 kts
2026-04-17 09:28 57.60710 10.82689 35321 ft 424 kts
2026-04-17 09:29 57.66508 10.84645 35315 ft 423 kts
2026-04-17 09:29 57.72309 10.86582 35317 ft 423 kts
2026-04-17 09:30 57.78114 10.88522 35321 ft 424 kts
2026-04-17 09:30 57.83915 10.90472 35313 ft 424 kts
2026-04-17 09:31 57.89715 10.92433 35307 ft 423 kts
2026-04-17 09:31 57.95514 10.94411 35305 ft 424 kts
2026-04-17 09:32 58.01314 10.96385 35324 ft 424 kts
2026-04-17 09:32 58.07128 10.98356 35310 ft 425 kts
2026-04-17 09:33 58.12949 11.00350 35303 ft 425 kts
2026-04-17 09:33 58.18779 11.02352 35303 ft 426 kts
2026-04-17 09:34 58.24612 11.04380 35306 ft 426 kts
2026-04-17 09:34 58.30447 11.06400 35311 ft 426 kts
2026-04-17 09:35 58.36283 11.08417 35306 ft 426 kts
2026-04-17 09:35 58.42110 11.10453 35310 ft 426 kts
2026-04-17 09:36 58.47935 11.12502 35310 ft 426 kts
2026-04-17 09:36 58.53766 11.14553 35314 ft 426 kts
2026-04-17 09:37 58.59600 11.16603 35304 ft 427 kts
2026-04-17 09:37 58.65442 11.18661 35302 ft 427 kts
2026-04-17 09:38 58.71286 11.20716 35301 ft 427 kts
2026-04-17 09:38 58.77133 11.22794 35301 ft 427 kts
2026-04-17 09:39 58.82981 11.24884 35316 ft 428 kts
2026-04-17 09:39 58.88836 11.26998 35305 ft 428 kts
2026-04-17 09:40 58.94699 11.29094 35300 ft 429 kts
2026-04-17 09:40 59.00573 11.31214 35300 ft 429 kts
2026-04-17 09:41 59.06446 11.33340 35303 ft 429 kts
2026-04-17 09:41 59.12323 11.35416 35313 ft 429 kts
2026-04-17 09:42 59.18242 11.36889 35303 ft 429 kts
2026-04-17 09:42 59.24178 11.38035 35298 ft 429 kts
2026-04-17 09:43 59.30120 11.39254 35298 ft 429 kts
2026-04-17 09:43 59.36060 11.40620 35295 ft 430 kts
2026-04-17 09:44 59.41997 11.42022 35300 ft 430 kts
2026-04-17 09:44 59.47944 11.43394 35293 ft 430 kts
2026-04-17 09:45 59.53895 11.44757 35291 ft 431 kts
2026-04-17 09:45 59.59849 11.46129 35291 ft 431 kts
2026-04-17 09:46 59.65800 11.47513 35288 ft 431 kts
2026-04-17 09:46 59.71757 11.48910 35291 ft 431 kts
2026-04-17 09:47 59.77722 11.50312 35289 ft 432 kts
2026-04-17 09:47 59.83688 11.51707 35282 ft 432 kts
2026-04-17 09:48 59.89655 11.53122 35283 ft 432 kts
2026-04-17 09:48 59.95626 11.54545 35284 ft 432 kts
2026-04-17 09:49 60.01600 11.55956 35281 ft 432 kts
2026-04-17 09:49 60.07570 11.57366 35279 ft 432 kts
2026-04-17 09:50 60.13542 11.58790 35279 ft 432 kts
2026-04-17 09:50 60.19516 11.60232 35279 ft 432 kts
2026-04-17 09:51 60.25488 11.61679 35285 ft 432 kts
2026-04-17 09:51 60.31468 11.63121 35279 ft 433 kts
2026-04-17 09:52 60.37452 11.64568 35278 ft 433 kts
2026-04-17 09:52 60.43434 11.66038 35278 ft 433 kts
2026-04-17 09:53 60.49424 11.67515 35278 ft 433 kts
2026-04-17 09:53 60.55412 11.68991 35287 ft 434 kts
2026-04-17 09:54 60.61406 11.70467 35283 ft 434 kts
2026-04-17 09:54 60.67406 11.71941 35282 ft 434 kts
2026-04-17 09:55 60.73364 11.73412 35282 ft 434 kts
2026-04-17 09:55 60.79366 11.74917 35284 ft 435 kts
2026-04-17 09:56 60.85369 11.76412 35293 ft 435 kts
2026-04-17 09:56 60.91378 11.77913 35289 ft 435 kts
2026-04-17 09:57 60.97392 11.79422 35290 ft 435 kts
2026-04-17 09:57 61.03407 11.80955 35295 ft 436 kts
2026-04-17 09:58 61.09426 11.82495 35298 ft 436 kts
2026-04-17 09:58 61.15443 11.84023 35298 ft 436 kts
2026-04-17 09:59 61.21457 11.85563 35300 ft 436 kts
2026-04-17 09:59 61.26456 11.86853 35301 ft 436 kts
2026-04-17 10:00 61.32474 11.88410 35301 ft 436 kts
2026-04-17 10:00 61.38491 11.89972 35302 ft 436 kts
2026-04-17 10:01 61.44512 11.91525 35312 ft 436 kts
2026-04-17 10:01 61.50537 11.93091 35309 ft 436 kts
2026-04-17 10:02 61.56565 11.94674 35309 ft 437 kts
2026-04-17 10:02 61.62592 11.96268 35308 ft 437 kts
2026-04-17 10:03 61.68620 11.97870 35309 ft 436 kts
2026-04-17 10:03 61.74650 11.99465 35314 ft 437 kts
2026-04-17 10:04 61.80687 12.01063 35315 ft 437 kts
2026-04-17 10:04 61.86718 12.02669 35312 ft 437 kts
2026-04-17 10:05 61.92753 12.04286 35309 ft 437 kts
2026-04-17 10:05 61.98792 12.05916 35309 ft 437 kts
2026-04-17 10:06 62.04828 12.07539 35320 ft 438 kts
2026-04-17 10:06 62.10873 12.09183 35317 ft 438 kts
2026-04-17 10:07 62.16919 12.10834 35315 ft 438 kts
2026-04-17 10:07 62.22966 12.12474 35315 ft 438 kts
2026-04-17 10:08 62.29015 12.14128 35317 ft 438 kts
2026-04-17 10:08 62.35068 12.15808 35322 ft 439 kts
2026-04-17 10:09 62.41124 12.17501 35311 ft 439 kts
2026-04-17 10:09 62.47131 12.19983 35315 ft 441 kts 11°
2026-04-17 10:10 62.53109 12.22975 35316 ft 441 kts 11°
2026-04-17 10:11 62.62068 12.27482 35316 ft 441 kts 12°
2026-04-17 10:11 62.68002 12.30500 35314 ft 441 kts 12°
2026-04-17 10:12 62.74018 12.33556 35311 ft 441 kts 12°
2026-04-17 10:12 62.79959 12.36575 35306 ft 441 kts 12°
2026-04-17 10:13 62.85931 12.39641 35309 ft 441 kts 12°
2026-04-17 10:13 62.91906 12.42717 35313 ft 441 kts 12°
2026-04-17 10:14 62.97883 12.45800 35296 ft 441 kts 12°
2026-04-17 10:14 63.03864 12.48908 35294 ft 442 kts 12°
2026-04-17 10:15 63.09849 12.52033 35287 ft 442 kts 12°
2026-04-17 10:15 63.15836 12.55155 35290 ft 442 kts 12°
2026-04-17 10:16 63.21822 12.58299 35287 ft 442 kts 12°
2026-04-17 10:16 63.27809 12.61471 35283 ft 442 kts 12°
2026-04-17 10:17 63.33799 12.64631 35265 ft 443 kts 12°
2026-04-17 10:17 63.39792 12.67812 35266 ft 443 kts 12°
2026-04-17 10:18 63.45785 12.71023 35262 ft 443 kts 12°
2026-04-17 10:18 63.51790 12.74259 35265 ft 444 kts 12°
2026-04-17 10:19 63.57798 12.77502 35259 ft 444 kts 12°
2026-04-17 10:19 63.63809 12.80750 35256 ft 444 kts 12°
2026-04-17 10:20 63.69824 12.84014 35256 ft 445 kts 12°
2026-04-17 10:20 63.75843 12.87308 35258 ft 445 kts 12°
2026-04-17 10:21 63.81867 12.90608 35255 ft 446 kts 12°
2026-04-17 10:21 63.87908 12.93943 35252 ft 447 kts 12°
2026-04-17 10:22 63.93963 12.97302 35252 ft 449 kts 12°
2026-04-17 10:22 64.00034 13.00683 35102 ft 449 kts 12°
2026-04-17 10:23 64.06107 13.04079 35122 ft 449 kts 12°
2026-04-17 10:23 64.12184 13.07491 35154 ft 450 kts 12°
2026-04-17 10:24 64.18263 13.10907 35187 ft 450 kts 12°
2026-04-17 10:24 64.24345 13.14356 35278 ft 450 kts 12°
2026-04-17 10:25 64.30429 13.17822 35280 ft 450 kts 12°
2026-04-17 10:25 64.36510 13.21290 35280 ft 450 kts 12°
2026-04-17 10:26 64.42584 13.24761 35284 ft 450 kts 12°
2026-04-17 10:26 64.48656 13.28265 35282 ft 449 kts 12°
2026-04-17 10:27 64.54725 13.31785 35263 ft 450 kts 12°
2026-04-17 10:27 64.60792 13.35318 35266 ft 449 kts 13°
2026-04-17 10:28 64.66856 13.38867 35276 ft 449 kts 13°
2026-04-17 10:28 64.72919 13.42429 35275 ft 449 kts 13°
2026-04-17 10:29 64.78979 13.46001 35274 ft 449 kts 13°
2026-04-17 10:29 64.85028 13.49668 35269 ft 449 kts 15°
2026-04-17 10:30 64.91003 13.53971 35267 ft 449 kts 17°
2026-04-17 10:30 64.96932 13.58601 35269 ft 449 kts 17°
2026-04-17 10:31 65.02871 13.63169 35279 ft 449 kts 17°
2026-04-17 10:31 65.08817 13.67656 35279 ft 448 kts 17°
2026-04-17 10:32 65.14757 13.72129 35275 ft 448 kts 17°
2026-04-17 10:32 65.20697 13.76638 35280 ft 448 kts 17°
2026-04-17 10:33 65.26626 13.81160 35280 ft 447 kts 17°
2026-04-17 10:33 65.32550 13.85703 35270 ft 447 kts 18°
2026-04-17 10:34 65.38477 13.90276 35271 ft 447 kts 18°
2026-04-17 10:34 65.44393 13.94864 35267 ft 447 kts 18°
2026-04-17 10:35 65.50315 13.99478 35261 ft 447 kts 18°
2026-04-17 10:35 65.56227 14.04117 35262 ft 447 kts 18°
2026-04-17 10:36 65.62149 14.08757 35262 ft 447 kts 19°
2026-04-17 10:36 65.68069 14.13418 35262 ft 448 kts 19°
2026-04-17 10:37 65.73990 14.18114 35264 ft 448 kts 19°
2026-04-17 10:37 65.79913 14.22851 35264 ft 448 kts 19°
2026-04-17 10:38 65.85835 14.27615 35268 ft 448 kts 19°
2026-04-17 10:38 65.91756 14.32374 35268 ft 448 kts 19°
2026-04-17 10:39 65.97670 14.37152 35288 ft 447 kts 19°
2026-04-17 10:39 66.03570 14.41953 35293 ft 446 kts 19°
2026-04-17 10:40 66.09460 14.46764 35288 ft 446 kts 20°
2026-04-17 10:40 66.15345 14.51605 35284 ft 446 kts 20°
2026-04-17 10:41 66.21226 14.56469 35268 ft 445 kts 20°
2026-04-17 10:41 66.27092 14.61327 35284 ft 444 kts 20°
2026-04-17 10:42 66.32945 14.66202 35288 ft 443 kts 20°
2026-04-17 10:42 66.37795 14.70256 35293 ft 442 kts 20°
2026-04-17 10:43 66.43624 14.75151 35292 ft 442 kts 20°
2026-04-17 10:43 66.49448 14.80074 35293 ft 441 kts 21°
2026-04-17 10:44 66.55257 14.85018 35290 ft 441 kts 21°
2026-04-17 10:44 66.61066 14.89969 35292 ft 441 kts 21°
2026-04-17 10:45 66.66873 14.94944 35290 ft 441 kts 21°
2026-04-17 10:45 66.72668 14.99963 35285 ft 440 kts 21°
2026-04-17 10:46 66.78467 15.04990 35287 ft 440 kts 21°
2026-04-17 10:46 66.84264 15.10030 35273 ft 440 kts 21°
2026-04-17 10:47 66.90048 15.15102 35289 ft 439 kts 21°
2026-04-17 10:47 66.95825 15.20174 35290 ft 439 kts 21°
2026-04-17 10:48 67.01593 15.25260 35287 ft 438 kts 21°
2026-04-17 10:48 67.07350 15.30374 35284 ft 438 kts 21°
2026-04-17 10:48 67.10224 15.32938 35072 ft 435 kts 21°
2026-04-17 10:49 67.13068 15.35473 34829 ft 431 kts 21°
2026-04-17 10:49 67.15892 15.37995 34583 ft 429 kts 22°
2026-04-17 10:49 67.18700 15.40515 34349 ft 426 kts 22°
2026-04-17 10:49 67.21495 15.43034 34082 ft 424 kts 22°
2026-04-17 10:50 67.24274 15.45544 33773 ft 421 kts 22°
2026-04-17 10:50 67.27028 15.48036 33274 ft 418 kts 22°
2026-04-17 10:50 67.29760 15.50511 32778 ft 415 kts 22°
2026-04-17 10:50 67.32468 15.52975 32287 ft 411 kts 22°
2026-04-17 10:51 67.35160 15.55432 31804 ft 409 kts 22°
2026-04-17 10:51 67.37835 15.57881 31322 ft 406 kts 22°
2026-04-17 10:51 67.40486 15.60314 30853 ft 403 kts 22°
2026-04-17 10:51 67.43126 15.62743 30389 ft 401 kts 22°
2026-04-17 10:52 67.45748 15.65162 29885 ft 398 kts 21°
2026-04-17 10:52 67.48339 15.67550 29470 ft 392 kts 21°
2026-04-17 10:52 67.50895 15.69908 29032 ft 388 kts 21°
2026-04-17 10:52 67.53425 15.72248 28613 ft 383 kts 21°
2026-04-17 10:53 67.55921 15.74564 28195 ft 378 kts 21°
2026-04-17 10:53 67.58386 15.76857 27773 ft 374 kts 21°
2026-04-17 10:53 67.60828 15.79138 27358 ft 371 kts 21°
2026-04-17 10:53 67.63246 15.81399 26939 ft 367 kts 21°
2026-04-17 10:54 67.65641 15.83640 26528 ft 364 kts 21°
2026-04-17 10:54 67.68018 15.85870 26097 ft 362 kts 21°
2026-04-17 10:54 67.70383 15.88094 25663 ft 360 kts 21°
2026-04-17 10:54 67.72735 15.90313 25232 ft 358 kts 21°
2026-04-17 10:55 67.75077 15.92532 24778 ft 357 kts 21°
2026-04-17 10:55 67.77412 15.94753 24326 ft 356 kts 21°
2026-04-17 10:55 67.79743 15.96975 23877 ft 356 kts 21°
2026-04-17 10:55 67.82072 15.99191 23377 ft 355 kts 21°
2026-04-17 10:56 67.84390 16.01390 22931 ft 352 kts 21°
2026-04-17 10:56 67.86684 16.03574 22496 ft 350 kts 21°
2026-04-17 10:56 67.88971 16.05765 22052 ft 348 kts 21°
2026-04-17 10:56 67.91244 16.07947 21635 ft 346 kts 21°
2026-04-17 10:57 67.93515 16.10054 21207 ft 345 kts 17°
2026-04-17 10:57 67.95859 16.11368 20778 ft 344 kts 11°
2026-04-17 10:57 67.98206 16.12528 20352 ft 343 kts 11°
2026-04-17 10:57 68.00551 16.13689 19928 ft 342 kts 11°
2026-04-17 10:58 68.02888 16.14853 19507 ft 341 kts 11°
2026-04-17 10:58 68.05219 16.16017 19089 ft 341 kts 11°
2026-04-17 10:58 68.07545 16.17183 18672 ft 340 kts 11°
2026-04-17 10:58 68.09865 16.18350 18214 ft 339 kts 11°
2026-04-17 10:59 68.12172 16.19514 17806 ft 336 kts 12°
2026-04-17 10:59 68.14462 16.20671 17386 ft 334 kts 11°
2026-04-17 10:59 68.16742 16.21824 16984 ft 332 kts 11°
2026-04-17 10:59 68.19007 16.22973 16595 ft 330 kts 12°
2026-04-17 11:00 68.21259 16.24117 16205 ft 329 kts 11°
2026-04-17 11:00 68.23506 16.25260 15818 ft 328 kts 11°
2026-04-17 11:00 68.25743 16.26398 15434 ft 327 kts 12°
2026-04-17 11:00 68.27979 16.27534 15045 ft 326 kts 11°
2026-04-17 11:01 68.30209 16.28670 14659 ft 326 kts 12°
2026-04-17 11:01 68.32434 16.29814 14271 ft 326 kts 12°
2026-04-17 11:01 68.34630 16.30951 13867 ft 326 kts 11°
2026-04-17 11:01 68.36850 16.32100 13466 ft 324 kts 11°
2026-04-17 11:02 68.39087 16.33251 13070 ft 322 kts 11°
2026-04-17 11:02 68.41304 16.33825 12669 ft 320 kts 359°
2026-04-17 11:02 68.43491 16.33753 12276 ft 318 kts 359°
2026-04-17 11:02 68.45724 16.33682 11862 ft 317 kts 359°
2026-04-17 11:03 68.47896 16.33621 11464 ft 315 kts 359°
2026-04-17 11:03 68.50114 16.33561 11050 ft 314 kts 359°
2026-04-17 11:03 68.52271 16.33501 10640 ft 314 kts 359°
2026-04-17 11:03 68.54420 16.33443 10488 ft 303 kts 359°
2026-04-17 11:04 68.56486 16.33380 10096 ft 293 kts 359°
2026-04-17 11:04 68.58511 16.33315 9478 ft 289 kts 359°
2026-04-17 11:04 68.60491 16.33253 9000 ft 280 kts 359°
2026-04-17 11:04 68.62401 16.33198 8604 ft 269 kts 359°
2026-04-17 11:05 68.64239 16.33148 8230 ft 259 kts 358°
2026-04-17 11:05 68.66015 16.33100 7849 ft 255 kts 358°
2026-04-17 11:05 68.67787 16.33050 7473 ft 255 kts 358°
2026-04-17 11:05 68.69567 16.32995 7089 ft 256 kts 358°
2026-04-17 11:06 68.71353 16.33411 6507 ft 265 kts 17°
2026-04-17 11:06 68.72951 16.35995 5982 ft 271 kts 44°
2026-04-17 11:06 68.73969 16.40329 5546 ft 271 kts 70°
2026-04-17 11:06 68.74371 16.45305 5349 ft 261 kts 86°
2026-04-17 11:07 68.74282 16.50195 5194 ft 252 kts 102°
2026-04-17 11:07 68.73767 16.54684 5038 ft 240 kts 116°
2026-04-17 11:07 68.72911 16.58515 4874 ft 232 kts 130°
2026-04-17 11:07 68.71781 16.61616 4715 ft 229 kts 143°
2026-04-17 11:08 68.70434 16.63905 4553 ft 229 kts 157°
2026-04-17 11:08 68.68931 16.65281 4393 ft 227 kts 171°
2026-04-17 11:08 68.67373 16.65695 4280 ft 225 kts 179°
2026-04-17 11:08 68.65807 16.65877 3997 ft 225 kts 179°
2026-04-17 11:09 68.64244 16.66065 3628 ft 223 kts 179°
2026-04-17 11:09 68.62704 16.66246 3252 ft 221 kts 179°
2026-04-17 11:09 68.61201 16.66420 2868 ft 209 kts 178°
2026-04-17 11:10 68.58456 16.66737 2196 ft 184 kts 177°
2026-04-17 11:10 68.57235 16.66878 1873 ft 168 kts 177°
2026-04-17 11:10 68.56106 16.67008 1565 ft 157 kts 177°
2026-04-17 11:10 68.55033 16.67132 1290 ft 152 kts 177°
2026-04-17 11:11 68.53993 16.67249 1015 ft 148 kts 178°
2026-04-17 11:11 68.52985 16.67365 792 ft 143 kts 178°
2026-04-17 11:11 68.51993 16.67499 531 ft 142 kts 179°
2026-04-17 11:11 68.51008 16.67600 302 ft 141 kts 179°
2026-04-17 11:12 68.50032 16.67714 88 ft 139 kts 179°
2026-04-17 11:12 68.49164 16.67810 97 ft 101 kts 178°
2026-04-17 11:12 68.48698 16.67858 95 ft 46 kts 179°
2026-04-17 11:12 68.48488 16.67885 95 ft 19 kts 177°
2026-04-17 11:13 68.48442 16.68101 97 ft 10 kts 88°
2026-04-17 11:13 68.48442 16.68136 97 ft 0 kts 88°
2026-04-17 11:13 68.48442 16.68146 96 ft 0 kts 88°
2026-04-17 11:14 68.48443 16.68174 97 ft 2 kts 88°
2026-04-17 11:14 68.48443 16.68182 98 ft 1 kts 88°
2026-04-17 11:14 68.48444 16.68198 98 ft 2 kts 81°
2026-04-17 11:14 68.48462 16.68240 102 ft 7 kts 24°
2026-04-17 11:15 68.48527 16.68251 98 ft 11 kts 358°
2026-04-17 11:15 68.48613 16.68244 93 ft 14 kts 358°
2026-04-17 11:15 68.48722 16.68232 89 ft 16 kts 357°
2026-04-17 11:15 68.48831 16.68219 88 ft 15 kts 358°
2026-04-17 11:16 68.48890 16.68311 89 ft 8 kts 76°
2026-04-17 11:16 68.48892 16.68426 91 ft 6 kts 88°
2026-04-17 11:16 68.48895 16.68492 93 ft 4 kts 68°
2026-04-17 11:16 68.48939 16.68521 91 ft 9 kts 358°
2026-04-17 11:17 68.48965 16.68518 93 ft 1 kts 358°
2026-04-17 11:17 68.48968 16.68518 93 ft 0 kts 358°
2026-04-17 11:17 68.48977 16.68517 93 ft 2 kts 358°
2026-04-17 11:17 68.48982 16.68516 93 ft 0 kts 358°